Overview Statistics Trail Chart Weather Telemetry Raw packets
 

This is the latest recevied weather packets stored in our database for station/object OE3TEC-15. If no packets are shown the sender has not sent any weather packets the latest 10 day(s).

<< 20 21 22 23 24 25 >>
Time Temp. Humidity Pressure Rain* Wind** Luminosity Snow
1787787891 16.67° C 73% 1019.7 hPa 0 mm - 0 W/m² -
1787787287 16.67° C 71% 1019.7 hPa 0 mm - 0 W/m² -
1787786650 16.67° C 72% 1019.8 hPa 0 mm - 0 W/m² -
1787786046 16.67° C 73% 1019.7 hPa 0 mm - 0 W/m² -
1787784788 16.67° C 72% 1019.7 hPa 0 mm - 0 W/m² -
1787784185 17.22° C 71% 1019.9 hPa 0 mm - 0 W/m² -
1787782362 17.78° C 68% 1019.7 hPa 0 mm - 0 W/m² -
1787781122 18.33° C 67% 1019.9 hPa 0 mm - 0 W/m² -
1787780519 18.89° C 67% 1019.7 hPa 0 mm - 0 W/m² -
1787779882 18.89° C 65% 1019.7 hPa 0 mm - 0 W/m² -
1787779261 18.89° C 66% 1019.9 hPa 0 mm - 0 W/m² -
1787775602 18.89° C 69% 1019.9 hPa 0 mm - 0 W/m² -
1787774355 20° C 66% 1019.8 hPa 0 mm - 0 W/m² -
1787773115 20° C 65% 1019.8 hPa 0 mm - 0 W/m² -
1787772511 20° C 66% 1019.8 hPa 0 mm - 0 W/m² -
1787771252 18.89° C 69% 1019.3 hPa 0 mm - 0 W/m² -
1787768835 20° C 68% 1018.9 hPa 0 mm - 0 W/m² -
1787768227 20.56° C 67% 1018.7 hPa 0 mm - 0 W/m² -
1787766983 22.78° C 58% 1018.6 hPa 0 mm - 1 W/m² -
1787765724 25° C 49% 1018.4 hPa 0 mm - 7 W/m² -
1787765106 25.56° C 48% 1018.4 hPa 0 mm - 13 W/m² -
1787764503 25.56° C 47% 1018.3 hPa 0 mm - 18 W/m² -
1787763867 26.11° C 47% 1018.2 hPa 0 mm - 23 W/m² -
1787763263 26.67° C 46% 1018.2 hPa 0 mm - 29 W/m² -
1787762642 26.67° C 44% 1018.2 hPa 0 mm - 34 W/m² -

* Rain latest hour (hover to see other rain measurements)
** Current wind speed in m/s (hover to see current wind gust speed)